KINEIS-4A

Last updated on Thu Oct 23 2025 00:02:50 GMT+0000 (Coordinated Universal Time)

1 63303U 25056D 25295.57212597 .00003489 00000+0 55962-3 0 9997 2 63303 97.9978 59.1355 0002067 1.5157 358.6057 14.72311039 32165
UTC large
Height (km)
Speed (km/s)
/
Latitude / Longitude
Inclination (degrees)
Orbital Period (minutes)
Azimuth
Elevation
Range (km)
Doppler Factor

Next 0 passes for location: London (51.5072 / 0.1276)

Sorry there are no passes over London.